This is the latest recevied weather packets stored in our database for station/object KC3DGM. If no packets are shown the sender has not sent any weather packets the latest 1 day(s).
| Time | Temp. | Humidity | Pressure | Rain* | Wind** | Luminosity | Snow |
|---|---|---|---|---|---|---|---|
| 1778078872 | 9.44° C | 93% | 980.9 hPa | 0 mm | - | 120 W/m² | - |
| 1778077662 | 9.44° C | 94% | 980.7 hPa | 0 mm | - | 39 W/m² | - |
| 1778074027 | 8.33° C | 98% | 979.6 hPa | 0 mm | - | 73 W/m² | - |
| 1778073117 | 8.89° C | 99% | 979.4 hPa | 0 mm | - | 85 W/m² | - |
| 1778071907 | 8.33° C | 99% | 979.3 hPa | 0 mm | - | 27 W/m² | - |
| 1778069790 | 8.33° C | 99% | 979.4 hPa | 0 mm | - | 26 W/m² | - |
| 1778068580 | 8.33° C | 99% | 979.7 hPa | 0 mm | - | 11 W/m² | - |
| 1778065554 | 8.33° C | 99% | 978.4 hPa | 1.27 mm | - | 12 W/m² | - |
| 1778065251 | 8.33° C | 99% | 978.8 hPa | 1.27 mm | - | 3 W/m² | - |
| 1778064947 | 8.33° C | 99% | 978.7 hPa | 1.78 mm | - | 1 W/m² | - |
| 1778064644 | 8.33° C | 99% | 978.8 hPa | 3.05 mm | - | 0 W/m² | - |
| 1778064040 | 8.33° C | 99% | 978.7 hPa | 3.56 mm | - | 0 W/m² | - |
| 1778063737 | 8.33° C | 99% | 978.9 hPa | 4.83 mm | - | 0 W/m² | - |
| 1778063132 | 8.33° C | 99% | 978.8 hPa | 4.32 mm | - | 0 W/m² | - |
| 1778061921 | 8.33° C | 99% | 978.7 hPa | 1.78 mm | - | 0 W/m² | - |
| 1778061619 | 8.33° C | 99% | 978.4 hPa | 1.27 mm | - | 0 W/m² | - |
| 1778061013 | 8.33° C | 99% | 978 hPa | 0 mm | - | 0 W/m² | - |
| 1778060409 | 8.33° C | 99% | 978.1 hPa | 1.78 mm | - | 0 W/m² | - |
| 1778060107 | 8.33° C | 99% | 978.2 hPa | 1.27 mm | - | 0 W/m² | - |
| 1778059198 | 8.33° C | 99% | 978.2 hPa | 3.05 mm | - | 0 W/m² | - |
| 1778057987 | 8.89° C | 99% | 978.5 hPa | 3.05 mm | - | 0 W/m² | - |
| 1778057684 | 8.89° C | 99% | 978.3 hPa | 3.05 mm | - | 0 W/m² | - |
| 1778057381 | 8.89° C | 99% | 978.4 hPa | 3.05 mm | - | 0 W/m² | - |
| 1778056773 | 8.89° C | 99% | 978.2 hPa | 3.05 mm | - | 0 W/m² | - |
| 1778056471 | 8.89° C | 99% | 978.3 hPa | 4.83 mm | - | 0 W/m² | - |
* Rain latest hour (hover to see other rain measurements)
** Current wind speed in m/s (hover to see current wind gust speed)